Location: Lanoux
(43.1180°N, 1.4255°E)
Time: 14:28:17
(UTC+00:00)

NOAA 18 - Visible Passes

Search period start: 11 April 2026 00:00
Search period end: 21 April 2026 00:00
Orbit: 837 x 857 km, 98.8° (Epoch: 11 April)

Date Brightness Start Highest point End Pass type
(mag) Time Alt. Az. Time Alt. Az. Time Alt. Az.
11 Apr 6.3 21:16:35 31° NE 21:16:35 31° NE 21:20:45 10° N visible
11 Apr 6.9 22:58:30 27° NW 22:58:30 27° NW 23:01:30 10° NNW visible
12 Apr 6.5 21:03:19 25° ENE 21:03:19 25° ENE 21:07:29 10° N visible
12 Apr 6.5 22:45:13 35° NW 22:45:13 35° NW 22:48:40 10° NNW visible
13 Apr 6.7 20:50:03 20° ENE 20:50:13 20° ENE 20:54:07 10° NNE visible
13 Apr 6.2 22:31:57 43° NW 22:31:57 43° NW 22:35:47 10° NNW visible
14 Apr 7.0 20:36:46 16° ENE 20:37:23 16° ENE 20:40:36 10° NNE visible
14 Apr 5.9 22:18:41 52° NNW 22:18:41 52° NNW 22:22:49 10° NNW visible
15 Apr 7.2 20:23:30 12° ENE 20:24:35 13° NE 20:26:50 10° NNE visible
15 Apr 5.6 22:05:25 58° N 22:05:25 58° N 22:09:48 10° NNW visible
15 Apr 7.7 23:47:19 12° WNW 23:47:19 12° WNW 23:48:16 10° WNW visible
16 Apr 5.6 21:52:08 55° NNE 21:52:08 55° NNE 21:56:44 10° N visible
16 Apr 7.4 23:34:03 16° WNW 23:34:03 16° WNW 23:36:03 10° NW visible
17 Apr 5.7 21:38:53 47° NE 21:38:53 47° NE 21:43:38 10° N visible
17 Apr 7.1 23:20:47 21° WNW 23:20:47 21° WNW 23:23:34 10° NW visible
18 Apr 5.9 21:25:36 38° ENE 21:25:36 38° ENE 21:30:28 10° N visible
18 Apr 6.8 23:07:30 27° WNW 23:07:30 27° WNW 23:10:53 10° NW visible
19 Apr 6.2 21:12:20 30° ENE 21:12:32 30° ENE 21:17:15 10° N visible
19 Apr 6.4 22:54:14 35° WNW 22:54:14 35° WNW 22:58:08 10° NNW visible
20 Apr 6.5 20:59:04 24° ENE 20:59:39 24° ENE 21:03:57 10° N visible
20 Apr 6.0 22:40:58 45° WNW 22:40:58 45° WNW 22:45:16 10° NNW visible
